Hastings, NE

8:07 AM CST on January 24, 2017 (GMT -0600)
Hastings Municipal

Weather History for KHSI - October, 2014

Change the Weather History Date:

Thursday, October 2, 2014

  Actual Average Record
Temperature  
Mean Temperature 57 °F 59 °F  
Max Temperature 67 °F 71 °F 95 °F (2006)
Min Temperature 46 °F 47 °F 29 °F (1974)
Degree Days  
Heating Degree Days 8 7  
Month to date heating degree days 8 14  
Since 1 July heating degree days 123 110  
Cooling Degree Days 0 1  
Month to date cooling degree days 3 2  
Year to date cooling degree days 1018 1065  
Growing Degree Days 8 (Base 50)    
Moisture  
Dew Point 49 °F    
Average Humidity 62    
Maximum Humidity 89    
Minimum Humidity 34    
Precipitation  
Precipitation 0.21 in 0.07 in 0.93 in (1950)
Month to date precipitation 1.24 0.14  
Year to date precipitation 27.92 23.36  
Snow  
Snow 0.00 in 0.00 in - ()
Month to date snowfall 0.0 0.0  
Since 1 July snowfall 0.0 0.2  
Since 1 September snowfall 0.0 0.2  
Snow Depth 0.00 in    
Sea Level Pressure  
Sea Level Pressure 29.88 in    
Wind  
Wind Speed 14 mph (NNW)    
Max Wind Speed 33 mph    
Max Gust Speed 42 mph    
Visibility 9 miles    
Events Rain , Thunderstorm    
T = Trace of Precipitation, MM = Missing Value Source: NWS Daily Summary

Daily Weather History Graph

Daily Weather History Graph

Search for Another Location

Airport or City:

Trip Planner

Search our weather history database for the weather conditions in past years. The results will help you decide how hot, cold, wet, or windy it might be!

Date:

Astronomy

Oct. 02, 2014 Rise Set
Actual Time 7:31 AM CDT 7:14 PM CDT
Civil Twilight 7:04 AM CDT 7:41 PM CDT
Nautical Twilight 6:32 AM CDT 8:12 PM CDT
Astronomical Twilight 6:00 AM CDT 8:44 PM CDT
Moon 3:23 PM CDT (10/2) 12:48 AM CDT (10/2)
Length of Visible Light 12h 37m
Length of Day
11h 42m
First Quarter, 60% of the Moon is Illuminated
Oct 2
First Quarter
Oct 8
Full
Oct 15
Last Quarter
Oct 23
New
Oct 30
First Quarter

Hourly Weather History & Observations

Time (CDT) Temp. Dew Point Humidity Pressure Visibility Wind Dir Wind Speed Gust Speed Precip Events Conditions
12:53 AM 59.0 °F 55.9 °F 90% 29.75 in 8.0 mi NNE 3.5 mph - N/A   Clear
1:53 AM 59.0 °F 55.0 °F 87% 29.83 in 10.0 mi West 20.7 mph 26.5 mph N/A   Scattered Clouds
2:00 AM 60.1 °F 54.0 °F 80% 29.88 in 10.0 mi WNW 24.2 mph 38.0 mph N/A Thunderstorm Mostly Cloudy
2:25 AM 57.0 °F 51.1 °F 81% 29.89 in 6.0 mi NW 21.9 mph 33.4 mph 0.04 in Rain , Thunderstorm Thunderstorms and Rain
2:40 AM 57.0 °F 52.0 °F 83% 29.83 in 4.0 mi North 20.7 mph 31.1 mph 0.09 in Rain Heavy Rain
2:53 AM 57.0 °F 53.1 °F 87% 29.81 in 10.0 mi North 20.7 mph 28.8 mph 0.09 in Rain Light Rain
3:22 AM 55.9 °F 52.0 °F 87% 29.83 in 10.0 mi NNW 17.3 mph - 0.01 in   Scattered Clouds
3:33 AM 55.0 °F 52.0 °F 89% 29.82 in 10.0 mi NNW 15.0 mph - 0.01 in   Mostly Cloudy
3:53 AM 55.0 °F 51.1 °F 86% 29.80 in 10.0 mi North 21.9 mph 26.5 mph 0.01 in   Overcast
4:15 AM 54.0 °F 50.0 °F 86% 29.82 in 10.0 mi North 18.4 mph 27.6 mph N/A   Scattered Clouds
4:48 AM 53.6 °F 50.0 °F 88% 29.84 in 10.0 mi North 16.1 mph - N/A   Mostly Cloudy
4:53 AM 54.0 °F 50.0 °F 86% 29.81 in 10.0 mi North 18.4 mph - N/A   Overcast
5:30 AM 54.0 °F 48.9 °F 83% 29.86 in 10.0 mi NNW 19.6 mph 31.1 mph N/A   Overcast
5:53 AM 54.0 °F 48.9 °F 83% 29.86 in 10.0 mi NNW 19.6 mph 28.8 mph 0.00 in Rain Light Rain
6:53 AM 53.1 °F 50.0 °F 89% 29.85 in 10.0 mi North 17.3 mph - 0.03 in Rain Light Rain
7:17 AM 61.0 °F 57.9 °F 90% 29.75 in 7.0 mi North 4.6 mph - N/A   Mostly Cloudy
7:27 AM 60.1 °F 57.0 °F 90% 29.74 in 5.0 mi North 3.5 mph - N/A   Partly Cloudy
7:53 AM 53.1 °F 48.9 °F 86% 29.90 in 6.0 mi NNW 13.8 mph - 0.03 in Rain Rain
8:27 AM 53.1 °F 48.9 °F 86% 29.90 in 9.0 mi North 11.5 mph - 0.05 in Rain Light Rain
8:41 AM 53.1 °F 50.0 °F 89% 29.93 in 10.0 mi NW 12.7 mph - 0.05 in Rain Light Rain
8:53 AM 53.1 °F 50.0 °F 89% 29.91 in 10.0 mi NNW 13.8 mph - 0.05 in   Mostly Cloudy
9:40 AM 53.1 °F 50.0 °F 89% 29.93 in 10.0 mi North 13.8 mph - N/A   Overcast
9:53 AM 54.0 °F 50.0 °F 86% 29.92 in 10.0 mi North 12.7 mph - N/A   Overcast
10:00 AM 54.0 °F 50.0 °F 86% 29.93 in 10.0 mi North 15.0 mph - N/A   Overcast
10:53 AM 55.9 °F 50.0 °F 80% 29.91 in 10.0 mi NNW 18.4 mph - N/A   Overcast
11:03 AM 55.0 °F 50.0 °F 83% 29.92 in 10.0 mi NNW 16.1 mph 25.3 mph N/A   Overcast
11:05 AM 55.9 °F 50.0 °F 80% 29.93 in 10.0 mi NNW 17.3 mph - N/A   Overcast
11:42 AM 55.9 °F 48.9 °F 77% 29.93 in 10.0 mi North 16.1 mph - N/A   Overcast
11:49 AM 57.2 °F 50.0 °F 77% 29.93 in 10.0 mi North 16.1 mph - N/A   Overcast
11:53 AM 55.4 °F 48.2 °F 77% 29.92 in 10.0 mi North 17.3 mph 23.0 mph N/A   Overcast
12:53 PM 59.0 °F 48.0 °F 67% 29.90 in 10.0 mi North 18.4 mph 25.3 mph N/A   Mostly Cloudy
1:53 PM 61.0 °F 46.9 °F 60% 29.89 in 10.0 mi NNW 16.1 mph 26.5 mph N/A   Mostly Cloudy
2:53 PM 62.1 °F 46.0 °F 56% 29.87 in 10.0 mi North 15.0 mph - N/A   Mostly Cloudy
3:53 PM 64.0 °F 46.0 °F 52% 29.86 in 10.0 mi North 12.7 mph - N/A   Scattered Clouds
4:53 PM 66.9 °F 39.9 °F 37% 29.85 in 10.0 mi NNW 16.1 mph 25.3 mph N/A   Clear
5:53 PM 66.0 °F 37.9 °F 36% 29.86 in 10.0 mi North 16.1 mph 21.9 mph N/A   Clear
6:53 PM 62.1 °F 39.0 °F 43% 29.89 in 10.0 mi NNW 9.2 mph - N/A   Partly Cloudy
7:53 PM 55.0 °F 41.0 °F 59% 29.91 in 10.0 mi NW 5.8 mph - N/A   Clear
8:53 PM 53.6 °F 42.8 °F 67% 29.93 in 10.0 mi NW 4.6 mph - N/A   Clear
9:53 PM 50.0 °F 42.1 °F 74% 29.95 in 10.0 mi WNW 3.5 mph - N/A   Clear
10:53 PM 50.0 °F 42.1 °F 74% 29.95 in 10.0 mi WSW 3.5 mph - N/A   Clear
11:53 PM 50.0 °F 39.9 °F 68% 29.96 in 10.0 mi West 5.8 mph - N/A   Clear